Location: ??
(34.9170°N, 135.5016°E)
Time: 11:07:29
(UTC+00:00)

Vanguard 1 - All Passes

Search period start: 01 March 2021 00:00
Search period end: 11 March 2021 00:00
Orbit: 649 x 3833 km, 34.2° (Epoch: 28 February)

Date Brightness Start Highest point End Pass type
(mag) Time Alt. Az. Time Alt. Az. Time Alt. Az.
01 Mar - 01:46:27 10° WSW 01:52:56 23° SSW 02:02:40 10° SSE daylight
01 Mar - 16:47:49 10° SSW 16:52:01 20° SSE 16:55:26 10° ESE night (unlit)
01 Mar - 19:07:15 10° WSW 19:11:47 65° SSE 19:16:25 10° E visible
01 Mar - 21:27:08 10° W 21:31:42 79° S 21:38:24 10° ESE daylight
01 Mar - 23:46:37 10° W 23:52:13 41° SSW 00:01:36 10° SE daylight
02 Mar - 02:08:47 10° WSW 02:14:12 16° SSW 02:21:29 10° S daylight
02 Mar - 17:07:54 10° SW 17:12:53 29° SSE 17:16:47 10° E night (unlit)
02 Mar - 19:28:08 10° WSW 19:32:38 77° S 19:37:25 10° E visible
02 Mar - 21:47:58 10° W 21:52:36 69° SSW 21:59:33 10° ESE daylight
03 Mar - 00:07:45 10° W 00:13:15 31° SSW 00:22:04 10° SE daylight
03 Mar - 02:33:39 10° SW 02:35:32 10° SSW 02:37:33 10° SSW daylight
03 Mar - 15:10:16 10° S 15:13:15 13° SSE 15:15:47 10° SE night (unlit)
03 Mar - 17:28:24 10° SW 17:33:42 40° SSE 17:37:53 10° E visible
03 Mar - 19:49:03 10° W 19:53:30 84° S 19:58:27 10° E visible
03 Mar - 22:08:50 10° W 22:13:29 56° SSW 22:20:36 10° ESE daylight
04 Mar - 00:29:10 10° WSW 00:34:21 23° SSW 00:42:03 10° SSE daylight
04 Mar - 15:29:06 10° SSW 15:34:17 19° SSE 15:38:10 10° ESE night (unlit)
04 Mar - 17:49:09 10° WSW 17:54:33 54° SSE 17:58:51 10° E visible
04 Mar - 20:09:58 10° W 20:14:23 83° S 20:19:29 10° E visible
04 Mar - 22:29:45 10° W 22:34:24 43° SSW 22:41:28 10° SE daylight
05 Mar - 00:51:10 10° WSW 00:55:30 16° SSW 01:01:16 10° S daylight
05 Mar - 15:48:59 10° SSW 15:55:17 27° SSE 15:59:40 10° E night (unlit)
05 Mar - 18:10:05 10° WSW 18:15:24 69° S 18:19:45 10° E visible
05 Mar - 20:30:52 10° W 20:35:16 75° S 20:40:32 10° ESE visible
05 Mar - 22:50:47 10° W 22:55:20 32° SSW 23:02:03 10° SE daylight
06 Mar - 01:15:27 10° SW 01:16:42 10° SSW 01:18:03 10° SSW daylight
06 Mar - 13:51:02 10° S 13:55:01 13° SSE 13:58:16 10° SE night (unlit)
06 Mar - 16:09:22 10° SW 16:16:14 37° SSE 16:20:49 10° E night (unlit)
06 Mar - 18:31:06 10° W 18:36:16 80° S 18:40:40 10° E visible
06 Mar - 20:51:46 10° W 20:56:07 62° SSW 21:01:31 10° ESE visible
06 Mar - 23:12:04 10° WSW 23:16:18 23° SSW 23:22:14 10° SSE daylight
07 Mar - 14:09:28 10° SSW 14:16:11 19° SSE 14:20:58 10° ESE night (unlit)
07 Mar - 16:30:05 10° SW 16:37:09 49° SSE 16:41:48 10° E night (unlit)
07 Mar - 18:52:08 10° W 18:57:09 84° S 19:01:35 10° E visible
07 Mar - 21:12:42 10° W 21:16:57 48° SSW 21:22:22 10° ESE daylight
07 Mar - 23:33:52 10° WSW 23:37:19 16° SSW 23:41:46 10° S daylight
08 Mar - 14:29:06 10° SSW 14:37:18 27° SSE 14:42:39 10° ESE night (unlit)
08 Mar - 16:51:03 10° WSW 16:58:02 62° SSE 17:02:41 10° E night (unlit)
08 Mar - 19:13:10 10° W 19:18:01 82° S 19:22:31 10° E visible
08 Mar - 21:33:43 10° W 21:37:48 35° SSW 21:43:02 10° SE daylight
09 Mar - 12:31:09 10° S 12:36:16 13° SSE 12:40:25 10° SE visible
09 Mar - 14:49:20 10° SW 14:58:22 35° SSE 15:03:54 10° E night (unlit)
09 Mar - 17:12:09 10° WSW 17:18:56 74° S 17:23:32 10° E visible
09 Mar - 19:34:11 10° W 19:38:53 72° S 19:43:25 10° ESE visible
09 Mar - 21:54:55 10° WSW 21:58:39 25° SSW 22:03:23 10° SSE daylight
10 Mar - 12:49:04 10° SSW 12:57:34 19° SSE 13:03:33 10° ESE visible
10 Mar - 15:09:57 10° SW 15:19:23 46° SSE 15:24:57 10° E night (unlit)
10 Mar - 17:33:20 10° W 17:39:50 82° S 17:44:22 10° E visible
10 Mar - 19:55:12 10° W 19:59:43 57° SSW 20:04:16 10° ESE visible
10 Mar - 22:16:30 10° WSW 22:19:32 17° SSW 22:23:10 10° SSE daylight
